Location: The Jewett Observatory
(46.7288°N, 117.1525°W)
Time: 18:24:52
(UTC-08:00)

Amateur Radio Satellites - All Passes

Search period start: 05 March 2015 17:54
Search period end: 06 March 2015 17:54
Location: The Jewett Observatory, 46.7288°N, 117.1525°W

Satellite Date Start Highest point End Downlink Frequencies (MHz)
Time Altitude Azimuth
BEESAT 2 05 Mar 18:01:16 18:04:40 23° 322° (NW) 18:08:03 435.950
Cubesat XI-IV 05 Mar 18:01:23 18:06:19 36° 264° (W) 18:11:15 437.490
CUTE-I 05 Mar 18:09:35 18:14:22 31° 266° (W) 18:19:06 437.470
AUBIESAT-1 05 Mar 18:10:03 18:13:10 20° 301° (WNW) 18:16:21 437.475
M-CUBED/EXP-1 PRIME 05 Mar 18:11:10 18:14:04 18° 302° (WNW) 18:17:00 437.505
PRISM 05 Mar 18:15:50 18:20:01 56° 101° (E) 18:24:10 437.425
AIST 2 05 Mar 18:16:44 18:20:41 35° 317° (NW) 18:24:40 435.215
AIST 1 05 Mar 18:21:35 18:25:27 30° 270° (W) 18:29:14
MOZHAYETS 4 05 Mar 18:27:31 18:29:48 13° 301° (WNW) 18:31:53
HO-68 05 Mar 18:38:03 18:44:33 41° 62° (ENE) 18:51:10 435.675
VERMONT LUNAR 05 Mar 18:42:28 18:45:31 28° 186° (S) 18:48:33 437.305
O/OREOS (USA 219) 05 Mar 18:42:31 18:46:48 38° 252° (WSW) 18:51:01 437.305
SEEDS 05 Mar 18:43:48 18:46:34 18° 64° (ENE) 18:49:29 437.485
STRAND 1 05 Mar 18:46:21 18:51:31 65° 102° (ESE) 18:56:36 437.568
CANX-2 05 Mar 18:51:41 18:55:12 27° 67° (ENE) 18:58:47 2200.000
GOMX 1 05 Mar 18:52:01 18:56:38 33° 68° (ENE) 19:01:06 467.674
CINEMA 3 05 Mar 18:55:56 18:58:11 14° 61° (ENE) 19:00:35 145.822/145.860
CUBESAT XI-V 05 Mar 18:57:06 19:01:46 58° 287° (WNW) 19:06:21 437.345
BRITE-PL 05 Mar 19:03:45 19:09:12 59° 73° (ENE) 19:14:23 437.365/2234.400
CUTE 1.7 + AOD 2 05 Mar 19:09:22 19:13:13 36° 69° (ENE) 19:17:07 437.475
PHONESAT 2.4 05 Mar 19:10:39 19:13:53 30° 183° (S) 19:17:07 2401.200-2431.200
DOVE 4 05 Mar 19:10:46 19:15:13 34° 69° (ENE) 19:19:32 437.250
AAUSAT CUBESAT 2 05 Mar 19:40:07 19:44:05 46° 72° (ENE) 19:48:06 437.432
GONETS M04 05 Mar 19:42:51 19:48:40 21° 78° (ENE) 19:54:52
PCSat 05 Mar 19:44:28 19:49:48 63° 119° (ESE) 19:55:12 145.827
UWE-3 05 Mar 19:44:31 19:47:29 19° 64° (ENE) 19:50:31 435.000/436.395/437.385
COMPASS 1 05 Mar 19:45:20 19:49:25 61° 74° (ENE) 19:53:33 437.405
PRISM 05 Mar 19:52:20 19:55:10 17° 298° (WNW) 19:57:51 437.425
Oscar 11 05 Mar 19:57:59 20:01:56 37° 69° (ENE) 20:05:56 145.826/435.025
AIST 2 05 Mar 19:59:48 20:00:35 10° 339° (NNW) 20:01:16 435.215
SEEDS 05 Mar 20:18:01 20:22:05 50° 261° (W) 20:26:11 437.485
VERMONT LUNAR 05 Mar 20:20:44 20:22:49 15° 202° (SSW) 20:24:50 437.305
HO-68 05 Mar 20:25:24 20:32:15 47° 261° (W) 20:39:06 435.675
STRAND 1 05 Mar 20:26:30 20:30:16 20° 300° (WNW) 20:33:54 437.568
DELFI C3 05 Mar 20:27:04 20:31:02 58° 73° (ENE) 20:35:03 145.870
CANX-2 05 Mar 20:27:17 20:31:05 31° 265° (W) 20:34:52 2200.000
CUBEBUG 2 05 Mar 20:27:49 20:32:10 57° 73° (ENE) 20:36:24 437.445
DX 1 05 Mar 20:28:07 20:32:13 40° 69° (ENE) 20:36:22 434.975-435.025
HUMSAT D 05 Mar 20:28:57 20:32:10 22° 66° (ENE) 20:35:26 437.325/437.525
GOMX 1 05 Mar 20:29:50 20:34:44 36° 264° (W) 20:39:21 467.674
CINEMA 3 05 Mar 20:30:14 20:34:57 80° 258° (WSW) 20:39:27 145.822/145.860
CUBEBUG 1 05 Mar 20:41:37 20:43:17 12° 59° (ENE) 20:45:09 437.445
BRITE-PL 05 Mar 20:43:44 20:48:04 22° 270° (W) 20:52:06 437.365/2234.400
CUTE 1.7 + AOD 2 05 Mar 20:45:53 20:49:17 23° 268° (W) 20:52:38 437.475
AISAT 05 Mar 20:47:49 20:51:39 29° 66° (ENE) 20:55:34 437.250
DOVE 4 05 Mar 20:48:27 20:53:00 33° 265° (W) 20:57:19 437.250
PHONESAT 2.4 05 Mar 20:49:12 20:51:46 18° 200° (SSW) 20:54:18 2401.200-2431.200
FUNcube-1 05 Mar 20:49:39 20:53:56 65° 74° (ENE) 20:58:08 145.935
ZACube-1 05 Mar 20:52:11 20:56:30 70° 75° (ENE) 21:00:45 437.345
UKube-1 05 Mar 20:52:55 20:57:15 68° 73° (ENE) 21:01:36 .
VELOX 1 05 Mar 20:55:27 20:59:26 33° 68° (ENE) 21:03:29 145.980
RS-15 05 Mar 21:16:59 21:25:39 30° 106° (ESE) 21:34:46 29.354- 29.394
AAUSAT CUBESAT 2 05 Mar 21:17:12 21:20:03 17° 270° (W) 21:22:47 437.432
UWE-3 05 Mar 21:19:28 21:23:45 50° 261° (W) 21:27:56 435.000/436.395/437.385
50 SAT 05 Mar 21:23:21 21:27:13 56° 73° (ENE) 21:31:07 437.505
COMPASS 1 05 Mar 21:23:25 21:25:37 14° 272° (W) 21:27:39 437.405
ESTCUBE 1 05 Mar 21:24:18 21:28:18 32° 68° (ENE) 21:32:24 437.505/2401.250
PCSat 05 Mar 21:29:00 21:33:40 28° 319° (NW) 21:38:18 145.827
UNISAT 6 05 Mar 21:29:23 21:32:08 17° 90° (E) 21:35:01 437.425
Oscar 11 05 Mar 21:34:47 21:38:16 23° 268° (W) 21:41:41 145.826/435.025
GONETS M04 05 Mar 21:35:47 21:44:29 88° 278° (W) 21:53:15
POPSAT HIP 1 05 Mar 21:47:09 21:49:15 14° 88° (E) 21:51:33 437.405
POLYITAN 1 05 Mar 21:48:19 21:50:37 15° 89° (E) 21:53:03 437.675
TIGRISAT 05 Mar 21:52:04 21:55:43 27° 94° (E) 21:59:28 435.000
HUMSAT D 05 Mar 22:03:53 22:07:47 37° 263° (W) 22:11:40 437.325/437.525
DELFI C3 05 Mar 22:04:33 22:06:41 14° 272° (W) 22:08:40 145.870
DX 1 05 Mar 22:05:09 22:08:40 23° 267° (W) 22:12:07 434.975-435.025
CUBEBUG 2 05 Mar 22:06:28 22:09:16 16° 271° (W) 22:11:52 437.445
ANTELSAT 05 Mar 22:07:24 22:11:27 40° 98° (E) 22:15:35 437.575/2403.000
NANOSAT C BR1 05 Mar 22:07:59 22:11:18 23° 93° (E) 22:14:41 145.865
CUBEBUG 1 05 Mar 22:14:35 22:19:03 89° 78° (ENE) 22:23:32 437.445
AISAT 05 Mar 22:24:07 22:28:12 33° 264° (W) 22:32:18 437.250
TISAT 1 05 Mar 22:24:32 22:28:13 29° 67° (ENE) 22:31:56 437.305
DANDE 05 Mar 22:27:23 22:31:55 23° 95° (E) 22:35:45 436.750
FUNcube-1 05 Mar 22:28:33 22:30:46 13° 272° (W) 22:32:47 145.935
ZACube-1 05 Mar 22:31:29 22:33:25 12° 273° (W) 22:35:09 437.345
UKube-1 05 Mar 22:31:42 22:33:57 13° 272° (W) 22:36:01 .
VELOX 1 05 Mar 22:32:07 22:36:03 29° 265° (W) 22:39:57 145.980
BEESAT 3 05 Mar 22:32:46 22:34:36 13° 27° (NNE) 22:36:31 437.485
SPROUT 05 Mar 22:33:05 22:37:06 38° 70° (ENE) 22:41:08 437.525
BUGSAT 1 05 Mar 22:33:10 22:36:51 30° 95° (E) 22:40:30 437.445
CUSAT 1 05 Mar 22:35:47 22:40:36 30° 97° (E) 22:44:25 437.405
QB50P1 05 Mar 22:41:16 22:45:24 50° 99° (E) 22:49:30 145.935-145.965
ITUPSAT 1 05 Mar 22:45:17 22:46:19 11° 55° (NE) 22:47:35 437.325
QB50P2 05 Mar 22:46:23 22:50:34 58° 101° (E) 22:54:45 145.880/145.840
DUCHIFAT 1 05 Mar 22:58:13 23:02:27 75° 102° (ESE) 23:06:39 145.980
50 SAT 05 Mar 23:00:34 23:02:39 13° 271° (W) 23:04:34 437.505
ESTCUBE 1 05 Mar 23:01:12 23:05:13 30° 266° (W) 23:09:13 437.505/2401.250
BEESAT 2 05 Mar 23:01:51 23:04:36 17° 32° (NNE) 23:07:22 435.950
UNISAT 6 05 Mar 23:05:06 23:09:18 52° 288° (WNW) 23:13:32 437.425
SO-50 05 Mar 23:15:49 23:16:46 11° 108° (ESE) 23:18:00 436.795
PCSat 05 Mar 23:18:24 23:19:04 10° 344° (NNW) 23:19:38 145.827
AIST 2 05 Mar 23:19:43 23:21:49 13° 27° (NNE) 23:24:00 435.215
POPSAT HIP 1 05 Mar 23:21:27 23:25:39 61° 287° (WNW) 23:29:48 437.405
POLYITAN 1 05 Mar 23:22:49 23:27:00 58° 287° (WNW) 23:31:07 437.675
RS-15 05 Mar 23:26:00 23:36:56 83° 309° (NW) 23:48:08 29.354- 29.394
TIGRISAT 05 Mar 23:28:42 23:32:32 32° 292° (WNW) 23:36:21 435.000
GONETS M04 05 Mar 23:36:13 23:42:49 22° 303° (WNW) 23:49:10
SWISSCUBE 05 Mar 23:41:32 23:45:51 35° 67° (ENE) 23:50:14 437.505
NANOSAT C BR1 05 Mar 23:43:25 23:47:19 37° 291° (WNW) 23:51:10 145.865
ANTELSAT 05 Mar 23:44:41 23:48:06 23° 295° (WNW) 23:51:28 437.575/2403.000
BEESAT 05 Mar 23:49:22 23:53:45 38° 68° (ENE) 23:58:13 436.000
CUBEBUG 1 05 Mar 23:55:23 23:56:11 10° 275° (W) 23:56:42 437.445
TISAT 1 06 Mar 00:00:11 00:03:59 30° 265° (W) 00:07:46 437.305
BUGSAT 1 06 Mar 00:08:44 00:12:17 27° 293° (WNW) 00:15:43 437.445
DANDE 06 Mar 00:09:20 00:15:14 48° 284° (WNW) 00:19:37 436.750
BEESAT 3 06 Mar 00:09:33 00:13:39 54° 49° (NE) 00:17:40 437.485
SPROUT 06 Mar 00:09:49 00:13:21 23° 268° (W) 00:16:47 437.525
QB50P1 06 Mar 00:18:01 00:20:58 18° 297° (WNW) 00:23:48 145.935-145.965
CUSAT 1 06 Mar 00:18:37 00:23:26 31° 286° (WNW) 00:27:09 437.405
ITUPSAT 1 06 Mar 00:18:40 00:23:26 70° 72° (ENE) 00:28:14 437.325
QB50P2 06 Mar 00:23:24 00:26:06 16° 298° (WNW) 00:28:39 145.880/145.840
Oscar 19 06 Mar 00:33:02 00:37:14 25° 93° (E) 00:41:30 437.125/150
DUCHIFAT 1 06 Mar 00:35:45 00:37:47 13° 300° (WNW) 00:39:40 145.980
STARS 06 Mar 00:37:58 00:40:43 17° 62° (ENE) 00:43:36 437.465
KKS-1 06 Mar 00:39:10 00:42:46 25° 65° (ENE) 00:46:27 437.445
BEESAT 2 06 Mar 00:39:13 00:43:25 87° 53° (NE) 00:47:32 435.950
ITAMSAT 1 06 Mar 00:42:34 00:43:00 10° 83° (E) 00:43:47 435.822/435.867
SO-50 06 Mar 00:51:55 00:56:33 78° 125° (SE) 01:01:22 436.795
AIST 2 06 Mar 00:57:10 01:01:24 55° 48° (NE) 01:05:34 435.215
SWISSCUBE 06 Mar 01:19:32 01:23:46 30° 265° (W) 01:27:59 437.505
BEESAT 06 Mar 01:27:38 01:31:44 27° 266° (W) 01:35:49 436.000
YUBILEINY 06 Mar 01:33:09 01:41:17 40° 67° (ENE) 01:49:29 435.215
RS-15 06 Mar 01:41:11 01:51:11 37° 338° (NNW) 02:01:23 29.354- 29.394
BEESAT 3 06 Mar 01:48:26 01:51:24 19° 247° (WSW) 01:54:14 437.485
AUBIESAT-1 06 Mar 01:54:18 01:55:25 11° 54° (NE) 01:56:43 437.475
M-CUBED/EXP-1 PRIME 06 Mar 01:55:05 01:56:38 13° 55° (NE) 01:58:23 437.505
ITUPSAT 1 06 Mar 01:59:02 02:01:55 15° 272° (W) 02:04:37 437.325
Oscar 19 06 Mar 02:11:56 02:16:50 46° 291° (WNW) 02:21:42 437.125/150
STARS 06 Mar 02:12:24 02:16:48 62° 259° (W) 02:21:12 437.465
Gurwin Techsat 1B 06 Mar 02:12:24 02:17:37 53° 99° (E) 02:22:49 435.225
KKS-1 06 Mar 02:15:02 02:19:15 39° 262° (W) 02:23:28 437.445
ITAMSAT 1 06 Mar 02:18:18 02:23:34 75° 103° (ESE) 02:28:46 435.822/435.867
MOZHAYETS 4 06 Mar 02:18:28 02:21:01 15° 61° (ENE) 02:23:45
BEESAT 2 06 Mar 02:19:35 02:21:00 11° 250° (WSW) 02:22:12 435.950
HORYU 2 06 Mar 02:31:47 02:35:08 21° 92° (E) 02:38:36 437.375
SO-50 06 Mar 02:33:54 02:37:41 23° 327° (NNW) 02:41:30 436.795
AIST 2 06 Mar 02:36:34 02:39:40 19° 247° (WSW) 02:42:38 435.215
PCSat 06 Mar 02:46:45 02:50:52 22° 36° (NE) 02:55:04 145.827
JAS-2 06 Mar 02:49:18 02:54:33 21° 85° (E) 03:00:16 435.910
AO-7 06 Mar 03:07:03 03:14:11 32° 93° (E) 03:21:27 29.400- 29.500
AUBIESAT-1 06 Mar 03:26:28 03:29:49 66° 252° (WSW) 03:33:23 437.475
M-CUBED/EXP-1 PRIME 06 Mar 03:27:53 03:31:11 55° 254° (WSW) 03:34:41 437.505
YUBILEINY 06 Mar 03:29:57 03:38:28 54° 270° (W) 03:46:55 435.215
Gurwin Techsat 1B 06 Mar 03:52:59 03:57:20 25° 297° (WNW) 04:01:33 435.225
MOZHAYETS 4 06 Mar 03:53:11 03:57:45 73° 257° (WSW) 04:02:22
RS-15 06 Mar 03:57:48 04:07:29 32° 12° (NNE) 04:17:35 29.354- 29.394
ITAMSAT 1 06 Mar 03:58:59 04:02:33 18° 301° (WNW) 04:05:55 435.822/435.867
HORYU 2 06 Mar 04:07:48 04:12:03 44° 290° (WNW) 04:16:16 437.375
SO-50 06 Mar 04:19:48 04:20:03 10° 351° (N) 04:20:15 436.795
CUBESAT XI-V 06 Mar 04:26:52 04:30:37 25° 65° (ENE) 04:34:29 437.345
STRAND 1 06 Mar 04:27:58 04:31:31 20° 60° (ENE) 04:35:14 437.568
PCSat 06 Mar 04:29:36 04:35:04 89° 248° (WSW) 04:40:30 145.827
JAS-2 06 Mar 04:33:00 04:40:33 88° 104° (ESE) 04:48:28 435.910
Cubesat XI-IV 06 Mar 04:38:36 04:39:18 10° 83° (E) 04:40:21 437.490
CUTE-I 06 Mar 04:45:18 04:47:15 12° 84° (E) 04:49:32 437.470
AO-7 06 Mar 04:59:24 05:07:37 66° 294° (WNW) 05:15:46 29.400- 29.500
PRISM 06 Mar 05:08:52 05:12:58 60° 72° (ENE) 05:17:07 437.425
AIST 1 06 Mar 05:18:04 05:20:26 15° 85° (E) 05:22:59
YUBILEINY 06 Mar 05:32:06 05:33:24 10° 290° (WNW) 05:33:57 435.215
GONETS M04 06 Mar 05:47:58 05:51:29 13° 46° (NE) 05:55:31
SO-50 06 Mar 06:01:14 06:02:49 11° 15° (NNE) 06:04:29 436.795
CUBESAT XI-V 06 Mar 06:03:22 06:07:52 43° 263° (W) 06:12:23 437.345
STRAND 1 06 Mar 06:05:09 06:10:16 68° 257° (WSW) 06:15:27 437.568
RS-15 06 Mar 06:11:33 06:22:44 61° 42° (NE) 06:34:27 29.354- 29.394
PCSat 06 Mar 06:14:50 06:17:48 14° 255° (WSW) 06:20:31 145.827
Cubesat XI-IV 06 Mar 06:15:05 06:20:29 74° 102° (ESE) 06:25:51 437.490
JAS-2 06 Mar 06:19:05 06:24:53 25° 302° (WNW) 06:30:43 435.910
CUTE-I 06 Mar 06:22:53 06:28:18 84° 104° (ESE) 06:33:40 437.470
ISS 06 Mar 06:39:48 06:41:34 14° 136° (SE) 06:43:25 145.825
PRISM 06 Mar 06:46:39 06:48:56 14° 271° (W) 06:51:04 437.425
AIST 1 06 Mar 06:53:20 06:57:39 58° 282° (WNW) 07:02:01
AO-7 06 Mar 06:53:36 06:59:03 19° 316° (NW) 07:04:13 29.400- 29.500
BRITE-PL 06 Mar 07:08:19 07:10:03 12° 85° (E) 07:11:58 437.365/2234.400
O/OREOS (USA 219) 06 Mar 07:19:42 07:22:36 17° 101° (E) 07:25:40 437.305
SO-50 06 Mar 07:40:38 07:44:57 30° 38° (NE) 07:49:20 436.795
GONETS M04 06 Mar 07:42:27 07:51:00 55° 73° (ENE) 07:59:36
HO-68 06 Mar 07:49:47 07:55:57 31° 93° (E) 08:02:14 435.675
Cubesat XI-IV 06 Mar 07:56:18 08:00:05 19° 301° (WNW) 08:03:41 437.490
SEEDS 06 Mar 08:00:07 08:03:24 22° 92° (E) 08:06:46 437.485
CUTE-I 06 Mar 08:04:20 08:07:46 17° 302° (WNW) 08:11:01 437.470
CANX-2 06 Mar 08:09:25 08:13:21 35° 96° (E) 08:17:16 2200.000
ISS 06 Mar 08:14:22 08:17:36 83° 153° (SSE) 08:20:51 145.825
DUCHIFAT 1 06 Mar 08:21:48 08:22:24 10° 58° (ENE) 08:23:11 145.980
CINEMA 3 06 Mar 08:23:25 08:26:12 18° 90° (E) 08:29:06 145.822/145.860
RS-15 06 Mar 08:24:16 08:35:08 51° 246° (WSW) 08:46:19 29.354- 29.394
CUTE 1.7 + AOD 2 06 Mar 08:27:16 08:31:25 49° 99° (E) 08:35:34 437.475
GOMX 1 06 Mar 08:28:56 08:33:13 54° 100° (E) 08:37:17 467.674
UNISAT 6 06 Mar 08:31:23 08:34:41 22° 65° (ENE) 08:38:04 437.425
ZACube-1 06 Mar 08:41:01 08:41:24 10° 86° (E) 08:42:02 437.345
POPSAT HIP 1 06 Mar 08:42:55 08:45:39 17° 63° (ENE) 08:48:28 437.405
POLYITAN 1 06 Mar 08:44:23 08:47:13 18° 63° (ENE) 08:50:09 437.675
DOVE 4 06 Mar 08:44:31 08:48:41 54° 99° (E) 08:52:45 437.250
BRITE-PL 06 Mar 08:44:50 08:49:22 70° 286° (WNW) 08:53:34 437.365/2234.400
TIGRISAT 06 Mar 08:53:45 08:57:40 35° 69° (ENE) 09:01:35 435.000
AAUSAT CUBESAT 2 06 Mar 08:55:50 09:00:00 61° 100° (E) 09:04:10 437.432
O/OREOS (USA 219) 06 Mar 08:57:05 09:01:36 58° 299° (WNW) 09:06:11 437.305
COMPASS 1 06 Mar 09:01:40 09:05:54 80° 103° (ESE) 09:10:07 437.405
NANOSAT C BR1 06 Mar 09:03:31 09:07:02 26° 66° (ENE) 09:10:37 145.865
UWE-3 06 Mar 09:06:56 09:10:18 24° 93° (E) 09:13:45 435.000/436.395/437.385
ANTELSAT 06 Mar 09:09:19 09:13:32 51° 72° (ENE) 09:17:43 437.575/2403.000
CUSAT 1 06 Mar 09:12:04 09:13:12 12° 68° (ENE) 09:14:26 437.405
Oscar 11 06 Mar 09:18:11 09:22:25 51° 99° (E) 09:26:39 145.826/435.025
SO-50 06 Mar 09:20:59 09:25:49 55° 238° (WSW) 09:30:38 436.795
BUGSAT 1 06 Mar 09:25:56 09:29:45 33° 68° (ENE) 09:33:37 437.445
SEEDS 06 Mar 09:35:26 09:39:23 38° 290° (WNW) 09:43:19 437.485
QB50P1 06 Mar 09:36:42 09:40:53 55° 72° (ENE) 09:45:05 145.935-145.965
HO-68 06 Mar 09:37:04 09:44:08 60° 293° (WNW) 09:51:09 435.675
DELFI C3 06 Mar 09:39:11 09:43:17 69° 102° (ESE) 09:47:22 145.870
GONETS M04 06 Mar 09:39:45 09:47:38 38° 274° (W) 09:55:23
QB50P2 06 Mar 09:41:58 09:46:12 64° 73° (ENE) 09:50:27 145.880/145.840
HUMSAT D 06 Mar 09:45:21 09:48:51 27° 94° (E) 09:52:24 437.325/437.525
CANX-2 06 Mar 09:45:38 09:49:10 25° 293° (WNW) 09:52:38 2200.000
DX 1 06 Mar 09:49:36 09:53:51 49° 100° (E) 09:58:05 434.975-435.025
ISS 06 Mar 09:51:15 09:54:16 35° 351° (N) 09:57:18 145.825
CUBEBUG 2 06 Mar 09:52:37 09:56:48 87° 103° (ESE) 10:01:00 437.445
DUCHIFAT 1 06 Mar 09:53:18 09:57:35 81° 77° (ENE) 10:01:53 145.980
CINEMA 3 06 Mar 09:59:45 10:03:45 44° 289° (WNW) 10:07:42 145.822/145.860
CUBEBUG 1 06 Mar 10:02:25 10:04:36 14° 87° (E) 10:06:59 437.445
CUTE 1.7 + AOD 2 06 Mar 10:04:00 10:07:03 19° 296° (WNW) 10:10:00 437.475
UNISAT 6 06 Mar 10:07:10 10:11:19 41° 262° (W) 10:15:24 437.425
GOMX 1 06 Mar 10:08:07 10:10:58 17° 298° (WNW) 10:13:38 467.674
FUNcube-1 06 Mar 10:11:28 10:15:38 87° 284° (WNW) 10:19:49 145.935
AISAT 06 Mar 10:11:53 10:16:02 37° 97° (E) 10:20:09 437.250
UKube-1 06 Mar 10:13:48 10:18:11 84° 106° (ESE) 10:22:31 .
ZACube-1 06 Mar 10:14:17 10:18:27 80° 285° (WNW) 10:22:38 437.345
POPSAT HIP 1 06 Mar 10:16:57 10:21:10 56° 260° (W) 10:25:24 437.405
POLYITAN 1 06 Mar 10:18:36 10:22:48 53° 260° (W) 10:27:01 437.675
VELOX 1 06 Mar 10:19:20 10:23:35 43° 98° (E) 10:27:49 145.980
DOVE 4 06 Mar 10:23:22 10:26:07 17° 298° (WNW) 10:28:41 437.250
TIGRISAT 06 Mar 10:30:54 10:34:32 25° 266° (W) 10:38:04 435.000
AAUSAT CUBESAT 2 06 Mar 10:32:42 10:35:16 16° 297° (WNW) 10:37:41 437.432
50 SAT 06 Mar 10:33:46 10:37:42 63° 100° (E) 10:41:38 437.505
NANOSAT C BR1 06 Mar 10:38:54 10:42:48 34° 264° (W) 10:46:42 145.865
COMPASS 1 06 Mar 10:39:15 10:41:04 12° 299° (WNW) 10:42:44 437.405
O/OREOS (USA 219) 06 Mar 10:41:03 10:42:10 11° 321° (NW) 10:43:05 437.305
UWE-3 06 Mar 10:43:11 10:46:58 33° 291° (WNW) 10:50:43 435.000/436.395/437.385
ANTELSAT 06 Mar 10:47:43 10:50:41 17° 270° (W) 10:53:29 437.575/2403.000
DANDE 06 Mar 10:48:40 10:51:01 28° 264° (W) 10:53:23 436.750
ESTCUBE 1 06 Mar 10:50:29 10:54:53 46° 99° (E) 10:59:16 437.505/2401.250
CUSAT 1 06 Mar 10:54:11 10:56:04 17° 265° (W) 10:57:57 437.405
Oscar 11 06 Mar 10:55:12 10:58:17 19° 296° (WNW) 11:01:16 145.826/435.025
BUGSAT 1 06 Mar 11:01:39 11:05:18 26° 266° (W) 11:08:54 437.445
QB50P1 06 Mar 11:14:29 11:17:10 16° 271° (W) 11:19:43 145.935-145.965
DELFI C3 06 Mar 11:15:56 11:18:01 13° 298° (WNW) 11:19:57 145.870
QB50P2 06 Mar 11:20:20 11:22:38 14° 272° (W) 11:24:44 145.880/145.840
HUMSAT D 06 Mar 11:21:02 11:24:39 30° 292° (WNW) 11:28:15 437.325/437.525
DX 1 06 Mar 11:26:36 11:29:48 20° 297° (WNW) 11:32:54 434.975-435.025
HO-68 06 Mar 11:26:42 11:30:35 15° 313° (NW) 11:34:10 435.675
ISS 06 Mar 11:28:05 11:31:10 39° 12° (NNE) 11:34:14 145.825
CUBEBUG 2 06 Mar 11:31:44 11:32:57 11° 300° (WNW) 11:33:59 437.445
DUCHIFAT 1 06 Mar 11:32:59 11:34:06 11° 274° (W) 11:34:58 145.980
CUBEBUG 1 06 Mar 11:37:07 11:41:32 66° 287° (WNW) 11:45:52 437.445
TISAT 1 06 Mar 11:41:47 11:45:37 33° 96° (E) 11:49:27 437.305
AISAT 06 Mar 11:48:49 11:52:31 26° 295° (WNW) 11:56:07 437.250
FUNcube-1 06 Mar 11:50:38 11:51:23 10° 301° (WNW) 11:51:56 145.935
UKube-1 06 Mar 11:51:47 11:53:46 13° 301° (WNW) 11:55:33 .
Oscar 19 06 Mar 11:52:30 11:57:25 49° 70° (ENE) 12:02:22 437.125/150
SPROUT 06 Mar 11:52:43 11:56:55 50° 99° (E) 12:01:05 437.525
VELOX 1 06 Mar 11:56:26 11:59:58 23° 296° (WNW) 12:03:22 145.980
Gurwin Techsat 1B 06 Mar 11:58:53 12:02:19 18° 59° (ENE) 12:05:53 435.225
ITAMSAT 1 06 Mar 12:01:17 12:05:18 24° 62° (ENE) 12:09:28 435.822/435.867
50 SAT 06 Mar 12:10:12 12:12:17 14° 298° (WNW) 12:14:13 437.505
ITUPSAT 1 06 Mar 12:17:56 12:20:32 15° 87° (E) 12:23:21 437.325
AO-7 06 Mar 12:21:07 12:25:41 17° 41° (NE) 12:30:31 29.400- 29.500
ESTCUBE 1 06 Mar 12:27:57 12:31:31 22° 296° (WNW) 12:34:58 437.505/2401.250
ISS 06 Mar 13:04:31 13:07:44 62° 211° (SSW) 13:10:56 145.825
JAS-2 06 Mar 13:09:07 13:10:36 11° 46° (NE) 13:12:27 435.910
SWISSCUBE 06 Mar 13:16:16 13:21:02 56° 101° (E) 13:25:46 437.505
TISAT 1 06 Mar 13:17:48 13:21:20 25° 294° (WNW) 13:24:45 437.305
BEESAT 06 Mar 13:24:04 13:28:51 62° 101° (ESE) 13:33:37 436.000
SPROUT 06 Mar 13:29:38 13:32:42 19° 296° (WNW) 13:35:39 437.525
Oscar 19 06 Mar 13:32:54 13:37:05 24° 268° (W) 13:41:09 437.125/150
HORYU 2 06 Mar 13:32:56 13:36:41 28° 66° (ENE) 13:40:32 437.375
Gurwin Techsat 1B 06 Mar 13:36:24 13:41:44 78° 256° (WSW) 13:47:06 435.225
ITAMSAT 1 06 Mar 13:39:21 13:44:29 56° 259° (W) 13:49:40 435.822/435.867
ITUPSAT 1 06 Mar 13:54:14 13:59:04 72° 287° (WNW) 14:03:52 437.325
STARS 06 Mar 14:00:13 14:03:23 20° 91° (E) 14:06:38 437.465
KKS-1 06 Mar 14:03:18 14:07:16 31° 96° (E) 14:11:15 437.445
AO-7 06 Mar 14:08:49 14:16:52 56° 63° (ENE) 14:24:57 29.400- 29.500
YUBILEINY 06 Mar 14:38:03 14:45:52 40° 86° (E) 14:53:53 435.215
ISS 06 Mar 14:43:18 14:43:39 10° 227° (SW) 14:43:53 145.825
JAS-2 06 Mar 14:48:36 14:54:09 52° 68° (ENE) 15:00:27 435.910
SWISSCUBE 06 Mar 14:54:57 14:58:32 21° 298° (WNW) 15:02:01 437.505
BEESAT 06 Mar 15:02:53 15:06:18 19° 299° (WNW) 15:09:35 436.000
HORYU 2 06 Mar 15:09:17 15:13:19 33° 264° (W) 15:17:19 437.375
Gurwin Techsat 1B 06 Mar 15:21:11 15:22:45 11° 277° (W) 15:23:58 435.225
ITUPSAT 1 06 Mar 15:34:39 15:36:11 11° 304° (NW) 15:37:29 437.325
STARS 06 Mar 15:35:55 15:40:08 46° 290° (WNW) 15:44:18 437.465
KKS-1 06 Mar 15:40:01 15:43:53 29° 293° (WNW) 15:47:42 437.445
BEESAT 3 06 Mar 15:43:38 15:47:26 39° 119° (ESE) 15:51:20 437.485
MOZHAYETS 4 06 Mar 15:46:05 15:49:40 22° 91° (E) 15:53:22
Cubesat XI-IV 06 Mar 16:01:28 16:05:45 26° 62° (ENE) 16:10:10 437.490
AO-7 06 Mar 16:02:19 16:10:02 39° 264° (W) 16:17:37 29.400- 29.500
CUTE-I 06 Mar 16:08:51 16:13:21 29° 63° (ENE) 16:17:57 437.470
BEESAT 2 06 Mar 16:13:49 16:17:55 67° 123° (ESE) 16:22:05 435.950
VERMONT LUNAR 06 Mar 16:19:36 16:22:22 22° 166° (SSE) 16:25:10 437.305
YUBILEINY 06 Mar 16:34:02 16:42:34 52° 288° (WNW) 16:51:07 435.215
JAS-2 06 Mar 16:34:48 16:39:43 28° 271° (W) 16:45:03 435.910
AIST 2 06 Mar 16:36:05 16:40:08 45° 120° (ESE) 16:44:16 435.215
AUBIESAT-1 06 Mar 16:38:35 16:42:53 60° 106° (ESE) 16:47:28 437.475
M-CUBED/EXP-1 PRIME 06 Mar 16:40:25 16:44:45 69° 108° (ESE) 16:49:22 437.505
PHONESAT 2.4 06 Mar 16:55:17 16:58:10 22° 165° (SSE) 17:01:04 2401.200-2431.200
AIST 1 06 Mar 16:57:37 17:01:53 45° 76° (ENE) 17:06:07
BEESAT 3 06 Mar 17:21:58 17:25:38 29° 319° (NW) 17:29:18 437.485
MOZHAYETS 4 06 Mar 17:22:43 17:27:09 44° 290° (WNW) 17:31:34
O/OREOS (USA 219) 06 Mar 17:25:01 17:29:33 54° 60° (ENE) 17:34:03 437.305
Cubesat XI-IV 06 Mar 17:40:20 17:45:35 53° 260° (W) 17:50:52 437.490
